Temp
-5 -5 -6 -6 -6 -6 -6 -6 -6 -5 -5 -4 -4 -3 -2 1 2 1 2 3 5 7 7 8 10 11 11 15 15 14 14 14 15 14 13 14 15 15 16 16 16 17 17
-5 -6 -6 -7 -7 -7 -7 -6 -6 -6 -6 -6 -6 -6 -5 -3 -1 -1 -0 0 2 4 6 6 6 7 8 11 14 14 13 13 14 14 13 14 14 14 16 16 16 16 16
-6 -6 -7 -7 -7 -7 -8 -7 -7 -7 -6 -6 -6 -5 -4 -4 -3 -2 -1 -1 -0 1 1 4 5 6 5 8 11 14 13 13 13 14 15 15 16 15 14 15 16 16 16
-7 -7 -7 -7 -7 -8 -8 -8 -8 -7 -7 -7 -7 -7 -6 -6 -6 -6 -4 -2 -1 -2 -1 -0 2 3 4 6 8 11 13 13 13 12 14 16 16 16 14 12 14 15 15
-7 -8 -8 -8 -8 -8 -8 -8 -8 -8 -8 -8 -8 -8 -7 -7 -7 -6 -6 -4 -2 -3 -2 -2 -1 2 4 5 6 7 11 13 13 14 13 14 14 15 15 15 13 13 13
-8 -9 -9 -9 -9 -9 -9 -9 -8 -8 -8 -8 -8 -8 -8 -8 -7 -7 -7 -6 -5 -4 -3 -3 -3 -2 -0 2 3 5 7 10 12 12 14 14 14 14 15 14 14 14 14
-9 -9 -10 -10 -9 -9 -9 -9 -9 -9 -9 -9 -9 -8 -8 -8 -8 -8 -7 -7 -6 -5 -4 -4 -4 -3 -2 -0 1 3 5 6 10 13 12 14 15 15 15 16 15 14 14
-10 -10 -10 -11 -10 -10 -10 -10 -10 -10 -10 -9 -9 -9 -9 -9 -8 -8 -8 -7 -7 -6 -5 -5 -4 -4 -3 -2 -1 1 3 5 6 10 12 13 14 15 15 15 15 13 14
-11 -11 -11 -11 -11 -11 -11 -11 -11 -11 -10 -10 -10 -10 -9 -9 -9 -8 -8 -8 -7 -6 -6 -5 -5 -4 -4 -3 -2 -0 1 3 5 7 11 13 13 15 15 15 15 16 14
-11 -12 -12 -11 -11 -11 -11 -11 -11 -11 -11 -10 -10 -10 -10 -10 -9 -9 -8 -8 -8 -7 -7 -6 -5 -5 -4 -3 -2 -1 1 2 4 6 7 12 12 14 14 14 15 15 16
-12 -12 -11 -11 -11 -11 -11 -12 -11 -11 -11 -11 -11 -11 -10 -10 -10 -9 -9 -9 -8 -8 -7 -7 -6 -5 -4 -3 -3 -2 -1 1 3 4 6 8 12 12 13 13 14 14 15
-13 -12 -11 -11 -12 -12 -12 -12 -12 -12 -12 -12 -12 -11 -11 -10 -10 -10 -9 -9 -9 -8 -8 -7 -7 -6 -5 -4 -3 -2 -1 0 2 4 6 7 10 12 13 13 14 14 15
-12 -11 -12 -12 -13 -13 -13 -13 -13 -12 -12 -12 -12 -12 -11 -11 -10 -10 -10 -10 -9 -9 -8 -8 -7 -6 -5 -4 -4 -3 -2 -1 1 3 5 6 8 12 12 12 12 13 14
-11 -11 -12 -13 -13 -13 -13 -13 -13 -12 -13 -13 -13 -12 -12 -11 -11 -11 -10 -10 -9 -9 -8 -8 -7 -6 -5 -5 -4 -3 -2 -2 -1 1 3 5 7 9 12 12 12 12 11
-11 -12 -13 -14 -14 -14 -14 -14 -13 -13 -13 -13 -13 -13 -12 -12 -11 -11 -10 -10 -10 -9 -8 -8 -7 -6 -5 -5 -4 -4 -3 -2 -1 0 2 4 6 8 11 12 12 11 11
-13 -13 -14 -14 -15 -15 -15 -14 -14 -13 -13 -14 -13 -13 -13 -12 -12 -11 -11 -10 -10 -9 -8 -7 -7 -6 -5 -5 -4 -3 -2 -2 -1 0 1 3 5 7 10 12 12 12 11
-16 -15 -16 -16 -16 -15 -15 -14 -14 -14 -14 -14 -13 -13 -13 -12 -12 -12 -11 -10 -10 -9 -8 -7 -7 -6 -6 -5 -4 -3 -2 -2 -1 -0 1 3 6 7 10 11 12 12 12
-17 -17 -16 -16 -15 -14 -14 -14 -14 -14 -14 -14 -13 -13 -13 -12 -12 -12 -11 -10 -9 -8 -8 -7 -7 -6 -5 -4 -3 -2 -2 -2 -1 -1 0 2 4 8 11 11 11 11 11
-16 -16 -15 -15 -15 -14 -14 -14 -14 -14 -14 -13 -13 -13 -13 -12 -12 -11 -11 -10 -9 -9 -8 -8 -7 -6 -5 -4 -3 -2 -2 -1 -1 -1 -0 1 4 6 10 11 11 11 11
-15 -15 -14 -15 -15 -14 -15 -15 -15 -15 -14 -14 -14 -13 -13 -12 -12 -11 -11 -9 -10 -9 -8 -8 -7 -6 -4 -4 -3 -2 -2 -1 -1 -0 -0 1 2 5 7 11 11 11 11
-15 -14 -15 -15 -15 -15 -15 -16 -15 -15 -14 -14 -14 -13 -13 -12 -12 -11 -10 -10 -9 -9 -9 -7 -7 -6 -5 -4 -3 -3 -2 -1 -0 0 1 2 3 3 6 10 12 12 12
-15 -15 -15 -15 -15 -15 -16 -16 -15 -14 -14 -14 -14 -13 -13 -12 -12 -10 -11 -10 -10 -9 -8 -7 -6 -6 -5 -4 -4 -3 -2 -2 -0 0 1 3 4 5 6 8 11 12 11
-15 -15 -15 -16 -15 -15 -16 -16 -14 -14 -15 -14 -14 -13 -13 -13 -10 -11 -11 -10 -10 -9 -8 -7 -6 -6 -5 -5 -4 -3 -3 -2 -1 1 1 3 5 7 7 8 10 12 11
-15 -15 -15 -16 -16 -15 -15 -15 -14 -14 -15 -14 -14 -13 -13 -11 -11 -12 -11 -10 -10 -9 -7 -7 -7 -6 -5 -5 -4 -4 -4 -2 -1 1 2 2 4 6 9 9 9 10 11
-15 -16 -16 -16 -16 -16 -15 -14 -14 -14 -15 -15 -14 -14 -13 -11 -12 -12 -11 -10 -10 -9 -8 -7 -7 -6 -5 -5 -4 -4 -4 -3 -0 2 2 4 4 5 9 10 9 10 11
-16 -16 -16 -17 -16 -16 -15 -14 -14 -14 -15 -14 -14 -14 -12 -12 -12 -12 -11 -11 -10 -9 -8 -8 -8 -6 -6 -5 -5 -5 -4 -2 2 3 4 3 6 7 10 10 10 10 10
Height
905 902 899 895 891 886 881 877 873 867 862 855 849 846 844 841 840 839 836 832 829 825 822 817 813 814 812 810 815 816 822 827 831 836 839 839 841 842 844 845 848 850 853
904 902 899 896 892 888 883 879 875 870 866 861 856 853 849 844 841 838 836 833 828 825 821 819 817 815 814 810 809 811 815 820 824 828 833 836 838 837 838 840 841 844 848
906 903 900 897 894 890 885 881 877 872 868 863 857 851 847 844 839 835 831 829 827 824 822 819 817 814 814 808 809 806 808 811 814 818 821 827 825 830 831 833 835 838 841
907 905 901 897 894 891 887 882 878 874 869 864 859 855 850 846 843 838 833 827 825 823 821 819 817 813 810 807 805 803 799 801 805 811 812 815 816 820 826 827 829 832 834
908 906 903 899 895 890 887 882 878 873 869 864 860 856 851 847 840 837 833 828 822 820 819 817 814 811 808 805 801 797 795 794 797 798 803 809 810 811 815 818 824 827 828
907 905 902 899 895 891 886 881 877 872 867 862 858 854 850 844 840 836 831 826 821 817 815 813 810 808 806 803 798 792 792 791 787 788 794 797 802 804 808 812 815 817 822
906 903 901 897 893 889 884 880 876 870 866 861 856 851 847 842 837 832 827 824 819 815 811 809 806 802 800 799 796 791 788 785 783 782 783 789 791 797 800 806 808 811 815
903 899 895 892 889 885 881 876 871 866 862 858 853 849 845 840 833 828 824 821 817 813 809 805 802 799 795 791 789 787 782 779 780 777 774 779 783 788 792 795 802 807 808
899 896 893 889 885 881 877 872 868 864 859 854 849 844 840 835 831 825 820 816 813 809 805 801 796 793 790 786 782 780 777 777 773 772 769 768 773 778 781 786 790 794 798
898 895 892 887 883 880 875 870 866 861 857 852 847 841 835 831 825 821 817 811 806 803 799 795 792 787 783 781 778 773 770 768 767 767 764 761 763 768 771 774 779 783 786
897 894 889 886 882 878 874 869 863 858 852 848 844 838 832 826 822 817 811 807 801 796 792 788 784 781 777 774 771 768 766 762 760 758 757 755 754 755 760 763 769 772 777
895 892 888 883 879 875 870 866 861 856 850 844 839 834 829 823 817 811 806 800 794 789 784 780 775 772 769 766 764 761 759 756 752 751 752 749 746 744 747 754 756 761 765
893 890 886 883 878 873 868 862 858 852 846 840 834 828 823 818 812 805 799 793 787 781 776 772 767 763 760 756 754 752 749 747 745 743 740 738 737 733 735 738 744 750 756
892 889 886 882 876 871 866 860 853 848 842 836 829 823 817 812 805 799 792 786 780 774 767 763 758 753 750 747 744 741 738 735 732 731 729 728 726 727 722 727 732 739 744
891 889 886 880 875 869 863 856 850 843 838 831 824 818 811 806 799 792 785 778 772 765 760 753 747 744 739 736 733 731 728 725 721 718 716 715 715 716 716 714 719 727 732
892 889 884 879 873 867 860 853 846 839 834 827 820 812 805 799 792 784 777 771 764 757 751 744 738 732 728 723 722 721 717 714 710 706 704 702 703 703 702 701 705 710 717
892 887 882 877 870 864 858 850 843 836 830 823 815 808 800 791 784 778 771 763 756 749 742 735 729 722 715 710 708 706 704 700 697 694 693 690 688 688 691 690 691 697 702
887 883 878 872 866 861 854 847 840 833 826 819 811 803 795 786 778 771 763 755 748 741 733 726 718 710 702 698 693 690 688 684 681 679 679 678 676 675 675 680 677 682 688
883 879 874 869 863 856 850 843 836 829 823 815 807 798 790 781 772 763 754 746 739 731 723 716 708 700 690 685 679 675 672 667 663 662 662 662 661 660 663 665 669 670 673
880 875 870 866 859 852 847 840 833 826 819 811 802 794 786 777 767 757 748 740 732 724 715 706 698 690 680 672 665 661 655 649 646 644 643 645 645 643 646 649 652 657 660
875 871 866 861 856 849 844 837 830 823 816 807 798 790 781 773 763 752 744 734 725 717 708 699 688 679 670 660 652 646 639 630 628 626 625 624 624 628 631 633 637 640 651
871 866 862 857 851 847 841 834 827 820 812 804 795 785 776 767 757 749 738 728 720 710 700 689 678 667 658 649 639 630 622 615 610 606 606 606 608 610 614 620 621 631 639
869 864 860 854 848 844 838 831 823 816 809 801 791 782 772 762 754 744 733 723 714 705 694 684 671 658 647 636 625 614 604 596 589 587 587 590 593 596 599 607 611 617 627
865 861 856 851 845 840 834 829 821 814 807 798 788 779 770 758 750 741 732 722 712 701 690 679 666 651 638 625 611 598 586 576 567 564 569 574 578 581 581 588 596 605 612
861 858 853 847 841 836 830 825 819 812 805 796 787 777 768 759 748 740 732 721 710 701 688 676 663 644 628 615 601 584 568 557 546 546 553 559 563 566 562 567 578 589 598
858 853 848 843 837 832 826 821 816 810 803 795 786 777 768 758 748 737 721 715 707 694 681 670 658 641 628 611 591 570 550 531 522 528 533 542 542 547 540 549 558 570 581
Wind_Speed
12 15 18 19 22 23 25 26 28 30 31 36 35 27 35 30 33 26 29 25 26 24 24 23 19 15 17 25 31 33 30 33 28 21 17 19 21 24 27 29 32 31 30
13 17 19 19 21 22 25 25 25 26 26 29 26 20 28 19 23 30 29 26 29 26 24 22 22 20 24 15 31 32 24 25 34 17 8 5 10 21 27 29 32 35 33
11 16 18 18 20 21 22 24 24 24 23 27 26 30 24 24 20 36 35 34 29 26 22 22 22 23 24 20 20 34 33 25 31 32 12 4 7 9 17 26 28 31 32
10 15 18 19 20 20 19 22 21 22 22 25 24 23 22 24 26 26 32 35 29 25 24 21 21 22 22 23 23 21 35 30 26 27 30 23 12 6 4 10 24 29 30
8 12 15 16 18 19 19 22 20 22 22 24 22 20 21 23 27 26 27 29 29 26 24 21 22 25 26 28 28 27 20 37 27 30 28 28 18 16 6 6 13 20 26
8 9 12 14 15 16 18 20 20 21 23 24 24 21 22 24 25 26 26 24 26 30 25 23 24 24 24 27 29 30 26 21 35 29 30 32 25 16 13 4 11 19 22
6 8 12 14 16 18 19 19 19 21 21 22 22 23 24 25 26 26 24 27 26 25 28 26 26 27 25 26 27 28 26 28 20 35 33 33 35 33 28 21 11 8 18
6 11 15 16 18 20 20 21 22 23 23 23 23 22 21 22 26 25 27 27 26 26 26 28 26 28 27 28 28 26 29 32 30 23 33 34 35 35 32 30 17 6 13
8 12 17 19 22 25 25 24 23 22 24 25 25 25 24 24 25 27 28 28 28 28 28 28 30 28 28 28 30 28 26 25 29 35 28 39 34 37 37 36 34 26 10
8 12 16 22 25 27 29 28 25 23 23 23 24 25 26 25 27 27 27 31 32 30 29 29 28 29 28 27 26 29 28 26 28 26 33 33 40 37 39 39 38 36 28
7 11 18 24 27 28 29 28 28 27 27 25 25 25 28 28 27 28 29 29 31 32 31 30 30 30 30 28 28 28 30 30 29 30 28 33 39 38 37 37 38 36 34
7 15 21 25 26 28 30 29 30 29 30 30 28 27 26 28 28 29 29 31 31 32 33 33 31 31 31 30 30 30 30 30 30 32 29 34 32 42 38 38 39 38 38
8 13 18 20 23 27 29 30 30 31 34 34 31 30 28 28 29 31 32 32 32 33 33 33 33 33 30 31 32 32 32 33 34 34 32 32 34 37 40 38 37 37 35
8 11 15 19 22 25 28 29 32 33 33 33 32 32 30 31 32 32 32 33 32 33 35 35 35 35 34 33 34 34 34 35 36 35 36 36 33 35 42 41 41 38 34
12 12 14 18 22 24 26 29 33 34 34 33 32 33 33 32 33 32 32 32 34 34 34 36 36 36 36 34 33 34 35 36 37 37 38 38 40 46 42 42 41 40 36
12 13 18 20 21 25 27 31 33 34 35 33 33 34 34 34 34 34 34 33 33 34 34 35 35 36 36 38 38 38 38 38 37 38 38 41 42 41 45 54 52 47 42
10 11 17 20 24 28 30 32 34 35 34 32 34 34 34 36 36 35 34 33 33 33 33 34 34 35 37 39 41 41 42 41 42 41 39 38 37 41 41 55 57 54 53
8 15 20 26 29 31 30 31 34 33 32 32 32 34 35 37 38 36 34 34 33 32 32 32 33 36 38 38 41 42 43 42 45 45 43 41 43 37 42 41 49 52 54
19 22 23 25 29 29 29 31 32 30 30 30 33 36 37 38 38 37 38 36 34 34 33 32 33 36 38 38 39 40 40 40 45 46 46 45 43 49 45 46 41 44 45
20 21 22 26 27 30 29 30 29 29 29 33 36 37 38 36 38 39 38 36 33 33 33 34 35 36 37 38 36 37 37 39 42 44 46 49 51 46 47 49 43 42 45
19 20 22 25 28 29 28 28 28 27 33 35 36 37 36 37 37 38 35 35 32 33 33 34 35 38 33 35 36 36 37 39 39 41 40 45 52 57 57 55 51 50 45
20 22 22 24 29 28 27 27 27 33 35 35 36 37 37 37 37 33 36 33 32 30 31 32 33 37 32 35 35 36 38 38 42 42 42 44 48 51 58 49 56 48 40
18 20 20 24 28 28 26 26 33 34 34 34 35 36 37 37 32 34 35 32 31 28 30 27 29 36 31 35 35 38 38 38 38 48 48 46 47 48 55 56 52 52 41
18 18 20 21 24 28 29 29 31 33 32 33 35 35 34 35 36 34 31 32 31 30 29 28 28 33 31 33 33 35 34 35 36 46 50 49 50 45 47 53 58 49 42
18 17 20 20 24 29 31 30 30 32 30 31 33 33 31 32 36 31 29 32 33 33 34 31 33 32 30 36 43 39 31 32 35 36 42 38 42 38 42 45 47 47 45
17 22 23 23 28 31 31 30 28 31 31 29 31 31 32 32 32 33 39 36 34 39 39 41 42 43 40 45 44 40 35 42 30 35 28 33 29 34 39 39 39 40 43
Wind_Direction
360 6 6 5 4 8 7 6 3 4 3 4 1 355 353 354 354 354 352 353 347 344 342 334 333 327 332 240 237 220 216 217 219 216 220 227 227 227 225 223 223 224 227
6 2 2 3 5 1 3 1 1 1 2 359 356 350 340 341 346 344 347 348 345 344 339 341 332 320 319 328 238 223 211 216 217 193 193 206 223 230 228 229 229 226 226
356 353 355 356 357 359 359 356 357 355 357 356 352 350 349 339 341 343 342 343 343 342 340 330 326 323 311 308 318 230 214 208 214 205 189 190 218 201 221 222 223 223 223
358 351 351 351 353 351 352 354 355 353 353 356 352 350 344 336 331 330 332 333 337 336 333 331 327 321 321 310 298 289 226 213 208 208 213 219 192 198 190 219 218 218 220
350 343 345 343 343 347 347 350 348 350 350 352 350 344 336 329 327 327 327 329 329 330 328 324 318 314 309 305 297 303 275 221 219 207 203 213 209 206 187 201 206 218 223
336 340 344 343 340 343 345 346 344 345 347 348 346 341 333 329 326 323 325 326 324 323 324 322 318 313 311 309 311 300 293 285 216 217 210 206 207 199 197 186 204 212 217
319 332 336 340 345 347 346 346 342 339 341 341 340 337 332 327 323 322 321 320 318 318 316 317 315 313 308 304 301 299 291 290 280 222 214 215 214 215 215 215 201 200 210
320 341 341 342 346 346 345 344 343 339 339 337 334 331 326 324 318 316 315 311 307 306 307 309 306 305 304 304 302 298 296 288 281 281 213 217 217 213 212 209 201 199 201
337 336 335 343 345 345 343 342 338 336 336 334 332 328 324 322 316 311 310 304 302 301 301 300 301 299 299 297 296 291 288 284 285 273 259 218 222 220 215 214 212 210 208
333 321 331 343 345 344 344 343 340 333 330 329 327 324 321 317 314 310 303 303 300 300 298 297 295 295 295 292 287 286 286 284 276 277 269 237 222 222 216 212 214 217 219
314 316 334 341 342 343 343 340 339 335 332 329 325 321 319 316 312 306 303 299 298 298 296 295 292 290 289 286 280 277 278 276 275 273 276 272 227 216 218 213 214 214 216
306 325 333 337 338 337 339 337 335 332 331 328 324 321 317 314 311 307 304 300 295 294 294 293 289 288 284 280 276 273 270 270 269 267 264 259 257 214 207 214 213 216 214
328 328 331 327 328 330 332 332 331 329 331 327 322 321 318 315 310 306 305 301 297 294 292 291 287 286 279 277 274 271 267 264 263 263 264 263 259 231 213 208 213 214 215
329 330 325 319 323 325 326 326 328 332 329 324 321 316 317 314 309 306 305 300 297 292 291 288 286 283 279 274 271 270 267 264 263 261 258 257 258 262 213 206 207 208 208
331 326 319 320 320 319 321 325 328 330 330 321 317 313 314 312 309 308 306 302 297 293 289 286 285 282 279 273 267 265 265 263 263 261 259 257 252 249 243 207 210 208 206
320 315 317 318 318 318 319 324 326 327 327 319 313 314 314 313 313 311 308 304 298 294 292 288 284 282 277 273 270 265 263 262 259 259 257 256 253 257 252 220 212 208 205
295 304 309 307 316 319 325 323 324 328 323 316 314 315 315 316 314 310 307 304 301 299 293 290 288 283 279 277 274 268 262 258 256 255 254 254 252 246 242 229 214 211 211
282 303 310 318 326 329 331 332 331 328 320 315 315 317 319 315 312 310 308 307 306 301 298 294 291 288 284 283 277 271 264 256 253 251 249 246 246 245 235 231 214 210 210
299 310 317 320 325 331 335 333 327 323 318 318 318 319 318 314 313 312 311 309 309 305 301 298 297 296 288 293 283 275 265 256 250 247 245 243 243 240 240 220 221 212 213
316 320 323 325 330 337 337 332 321 320 319 321 319 318 316 314 313 311 309 311 307 305 302 300 299 301 297 298 292 282 266 253 248 243 242 241 238 241 242 220 213 209 211
315 326 327 328 330 336 337 325 321 318 321 321 320 319 318 316 314 310 314 313 310 307 303 301 301 306 297 300 298 291 276 255 244 240 238 236 235 232 235 223 215 215 210
319 326 321 320 331 339 334 323 319 328 326 323 322 321 320 319 316 319 319 317 316 310 309 306 308 311 301 305 301 296 287 269 249 236 236 235 233 229 232 230 210 205 207
309 315 314 316 326 333 333 321 332 335 324 324 324 323 323 321 325 324 322 323 321 317 313 315 313 311 309 308 302 302 292 280 264 238 232 233 231 231 227 224 216 210 202
313 316 318 315 314 329 333 334 337 336 326 324 326 326 324 328 330 327 325 325 323 319 321 321 318 313 317 315 310 307 293 283 276 235 228 228 239 224 227 214 210 206 201
310 313 312 312 312 325 330 335 339 340 327 326 328 328 327 329 328 326 324 326 322 326 330 329 328 325 329 329 328 317 300 290 269 220 216 225 223 233 220 203 204 202 202
308 313 316 315 320 327 328 333 338 342 332 326 331 330 331 330 330 328 328 334 336 338 340 341 342 340 343 342 343 339 327 318 237 207 211 215 225 221 204 196 191 195 198